Regional Weather Roundup
Issued by NWS San Angelo, TX

Home | Current Version | Previous Version | Text Only | Print | Product List | Glossary On
Versions: 1 2 3 4 5 6 7 8 9 10 11 12 13 14 15 16 17 18 19 20 21 22 23 24 25 26 27 28 29 30 31 32 33 34 35 36 37 38 39 40 41 42 43 44 45 46 47 48 49 50
000
ASUS44 KSJT 231710
RWRSJT
WEST CENTRAL TEXAS REGIONAL WEATHER ROUNDUP
NATIONAL WEATHER SERVICE SAN ANGELO TX
1200 PM CDT WED APR 23 2014

NOTE: "FAIR" INDICATES FEW OR NO CLOUDS BELOW 12,000 FEET WITH NO
SIGNIFICANT WEATHER AND/OR OBSTRUCTIONS TO VISIBILITY.

TXZ049-054-064>066-071>073-076>078-098-099-113-114-127-128-139-140-
154-155-168>170-231800
...LOCATIONS ACROSS WEST CENTRAL TEXAS...

CITY           SKY/WX    TMP DP  RH WIND       PRES   REMARKS
SAN ANGELO     PTSUNNY   83  58  42 S24G32    29.85F
ABILENE        MOSUNNY   81  59  47 S23G32    29.85F
DYESS AFB      MOSUNNY   82  61  48 S22G28    29.84F
JUNCTION       MOSUNNY   82  61  48 S16G24    29.88F
SWEETWATER     PTSUNNY   80  58  46 S20G29    29.89F
BROWNWOOD      SUNNY     82  61  47 S14       29.88F
COLEMAN        MOSUNNY   83  60  45 S16G26    29.87F
SONORA         MOSUNNY   82  57  42 S17G24    29.89F
OZONA          FAIR      82  54  36 S24G31    29.90F
BRADY          SUNNY     82  63  51 SE13      29.89F
$$

TEXAS PANHANDLE/OKLAHOMA PANHANDLE

CITY           SKY/WX    TMP DP  RH WIND       PRES   REMARKS
AMARILLO       MOSUNNY   77  51  40 S33G44    29.78F
BORGER         PTSUNNY   77  50  38 S26G44    29.75F
CANADIAN       PTSUNNY   73  52  47 S24G32    29.75F
DALHART        PTSUNNY   76  45  33 SW25G36   29.75F
DUMAS          MOSUNNY   76  49  38 S24G35    29.75F
GUYMON         NOT AVBL
HEREFORD       PTSUNNY   77  48  35 S28G36    29.80F
PAMPA          PTSUNNY   73  49  41 S32G38    29.79F
PERRYTON       PTSUNNY   66  54  63 S26G36    29.75F
$$

SOUTHERN PANHANDLE/SOUTH PLAINS/ROLLING PLAINS

CITY           SKY/WX    TMP DP  RH WIND       PRES   REMARKS
LUBBOCK        CLOUDY    77  54  44 S24G32    29.82F
SNYDER         MOSUNNY   81  58  45 S25G33    29.84F
CHILDRESS      CLOUDY    75  57  53 S17       29.83F
SEMINOLE       MOSUNNY   80  49  33 SW16G22   29.85F
$$

PERMIAN BASIN

CITY           SKY/WX    TMP DP  RH WIND       PRES   REMARKS
MIDLAND        MOSUNNY   83  54  36 S17G29    29.84F
ODESSA           N/A    N/A N/A N/A MISG      29.85F
WINK           PTSUNNY   83  49  30 S14G22    29.81F
$$

FAR WEST/SOUTHWEST MOUNTAINS/TRANS PECOS

CITY           SKY/WX    TMP DP  RH WIND       PRES   REMARKS
ALPINE         MOSUNNY   80  37  21 SW20G29   29.99F
DRYDEN           N/A     84  57  39 SE8       29.84F
EL PASO        MOSUNNY   76  25  15 W18G24    29.90F
FORT STOCKTON  MOSUNNY   87  40  19 W18G29    29.84F
GUADALUPE PASS MOSUNNY   73  28  18 W28       29.97F
MARFA          MOSUNNY   79  34  19 SW13      29.99F
PECOS          PTSUNNY   83  51  32 SW3       29.82F
$$

DALLAS/FORT WORTH METROPLEX

CITY           SKY/WX    TMP DP  RH WIND       PRES   REMARKS
DFW AIRPORT    MOSUNNY   81  62  52 S14       29.90F
FTW MEACHAM    SUNNY     80  62  54 S16       29.89F
DAL-EXECUTIVE  SUNNY     81  61  50 S9G16     29.91F
GRAND PRAIRIE  SUNNY     81  59  47 SE13      29.93F
ADDISON        SUNNY     81  59  47 S16G23    29.91F
MESQUITE       MOSUNNY   81  63  54 MISG      29.92F
LANCASTER      MOSUNNY   78  62  57 S8G16     29.93F
$$

NORTH CENTRAL TEXAS

CITY           SKY/WX    TMP DP  RH WIND       PRES   REMARKS
SHRMAN/DENISON SUNNY     78  59  52 S14G20    29.92F
GAINESVILLE    SUNNY     77  62  61 S17       29.92F
BRIDGEPORT     SUNNY     78  56  47 S15       29.91F
DENTON         MOSUNNY   78  62  57 S17       29.90F
WAXAHACHIE     MOSUNNY   79  61  54 S12G18    29.93F
GRANBURY       SUNNY     83  58  42 SE13G18   29.89F
$$

WESTERN NORTH TEXAS

CITY           SKY/WX    TMP DP  RH WIND       PRES   REMARKS
WICHITA FALLS  MOSUNNY   80  59  48 S15G28    29.84F
VERNON         MOSUNNY   82  59  45 S16G26    29.82F
BRECKENRIDGE   SUNNY     84  59  42 S20G26    29.85F
COMANCHE       SUNNY     82  58  44 S20G25    29.90F
$$

CENTRAL AND SOUTH CENTRAL TEXAS

CITY           SKY/WX    TMP DP  RH WIND       PRES   REMARKS
AUSTIN/BERGSTM MOSUNNY   81  65  58 S12       29.91F
WACO           SUNNY     82  63  52 S16       29.91F
HILLSBORO      MOSUNNY   82  61  48 S14G20    29.92F
TEMPLE         SUNNY     81  61  50 SE20G28   29.94F
KILLEEN-GRAY   MOSUNNY   82  57  42 SE17      29.90F
FORT HOOD      NOT AVBL
GEORGETOWN     MOSUNNY   81  63  54 S14       29.92F
LAGO VISTA     FAIR      81  62  51 S9G17     29.94F
SAN MARCOS     SUNNY     81  63  54 SE14      29.94F
NEW BRAUNFELS  SUNNY     83  64  52 S13G21    29.91F
RANDOLPH AFB   SUNNY     82  63  52 SE13G31   29.92F
SAN ANTONIO    MOSUNNY   84  64  50 SE15      29.91F
STINSON        SUNNY     85  65  51 E15       29.90F
PLEASANTON     NOT AVBL
LA GRANGE      MOSUNNY   79  70  73 SE9       29.93F
GIDDINGS       SUNNY     79  64  59 S9        29.97F
$$

EAST TEXAS

CITY           SKY/WX    TMP DP  RH WIND       PRES   REMARKS
PARIS          SUNNY     79  61  53 S15       29.95F
CLARKSVILLE    SUNNY     80  60  51 SE8       29.95F
TYLER          MOSUNNY   81  58  45 S12G23    29.95F
LONGVIEW       MOSUNNY   80  59  48 SE10      29.95F
PALESTINE      MOSUNNY   79  59  49 S9        29.97S
NACOGDOCHES    MOSUNNY   79  61  53 S8        29.98F
$$

TEXAS HILL COUNTRY AND EDWARDS PLATEAU

CITY           SKY/WX    TMP DP  RH WIND       PRES   REMARKS
LLANO          MOSUNNY   84  63  48 S10G17    29.92F
HORSESHOE BAY  FAIR      83  59  44 S13G18    29.90F
KERRVILLE      PTSUNNY   82  62  51 S17       29.92F
FREDERICKSBRG  SUNNY     80  61  53 S12G18    29.92F
ROCKSPRINGS    MOSUNNY   81  61  50 SE20G25   29.94F
HONDO          SUNNY     86  64  47 SE14      29.92F
UVALDE         MOSUNNY   82  65  57 S14G21    29.90F
DEL RIO        SUNNY     84  65  52 SE17G26   29.84F
$$

SOUTHEAST TEXAS

CITY           SKY/WX    TMP DP  RH WIND       PRES   REMARKS
COLLEGE STN    SUNNY     78  66  66 S9G18     29.95F
CALDWELL       DRIZZLE   81  64  57 S14       29.96F
CROCKETT       MOSUNNY   82  68  61 S7        29.98F
BRENHAM        MOSUNNY   78  68  71 SE10G16   29.96S
HUNTSVILLE     MOSUNNY   81  64  56 VRB7      29.95F
CONROE         MOSUNNY   82  65  56 SE10G17   29.96F
HOUSTON BUSH   PTSUNNY   77  66  68 S10G20    29.97S
HOUSTON HOBBY  MOSUNNY   78  66  66 S9        29.97F
PERLAND        MOSUNNY   77  65  66 S9        29.98F
WHARTON        MOSUNNY   78  66  66 SE9       29.96F
$$

THE UPPER TEXAS COAST

CITY           SKY/WX    TMP DP  RH WIND       PRES   REMARKS
ORANGE         PTSUNNY   78  62  58 SE9       30.00S
PORT ARTHUR    MOSUNNY   80  67  64 SE8       29.97F
GALVESTON      SUNNY     76  68  76 SE9       29.98F
ANGLETON       MOSUNNY   79  65  62 S9        29.96F
BAY CITY       MOSUNNY   80  69  70 S9        29.96F
$$

TEXAS COASTAL BEND, RIO GRANDE PLAINS DEEP SOUTH TEXAS

CITY           SKY/WX    TMP DP  RH WIND       PRES   REMARKS
VICTORIA       CLOUDY    79  67  66 S12       29.94F
BEEVILLE       FAIR      85  64  49 S13G22    29.92F
ROCKPORT       CLOUDY    77  68  73 SE10G20   29.93F
PORT ARANSAS   SUNNY     75  70  83 SE12      29.94F
PORT LAVACA    CLOUDY    77  67  72 S9        29.95F
CORPUS CHRISTI MOSUNNY   84  66  54 S13       29.92F
KINGSVILLE NAS PTSUNNY   84  70  62 SE13      29.91F
COTULLA        SUNNY     84  63  49 SE17G24   29.89F
LAREDO         PTSUNNY   81  67  62 S10       29.92F
BROWNSVILLE    MOSUNNY   83  66  56 S17       29.91F
PORT ISABEL    NOT AVBL
HEBBRONVILLE   CLOUDY    76  67  71 SE10      29.91F
MCALLEN        CLOUDY    79  69  71 SE13      29.90F
WESLACO        CLOUDY    82  66  58 SE14G22   29.90F
FALFURRIAS     CLOUDY    81  66  61 SE12      29.90F
EDINBURG       CLOUDY    82  68  61 SE13      29.90F
$$



USA.gov is the U.S. government's official web portal to all federal, state and local government web resources and services.